Location: Franzen
(48.6167°N, 15.3833°E)
Time: 06:04:53
(UTC+00:00)

Altair - Pass Details

Date: 12 August 2021
Orbit: 1501 x 1682 km, 47.2° (Epoch: 21 September)

Event Time Altitude Azimuth Distance (km) Brightness Sun altitude
Rises 01:28:50 0° 277° (W) 4,755 9.8 -18.7°
Reaches altitude 10° 01:31:57 10° 276° (W) 3,747 9.2 -18.4°
Maximum altitude 01:41:22 78° 192° (SSW) 1,552 7.4 -17.4°
Drops below altitude 10° 01:50:32 10° 108° (ESE) 3,653 9.8 -16.5°
Sets 01:53:32 0° 107° (ESE) 4,630 10.4 -16.1°
